Hourly Data Report for October 03, 2014

All times are specified in Local Standard Time (LST). Add 1 hour to adjust for Daylight Saving Time where and when it is observed.

IQALUIT CLIMATE
NUNAVUT

63°44'50.000" N
68°32'40.000" W
33.50 m
2402592
71321
XFB

Download Data

Hourly Data (October 2014)
Hourly Data Report for October 3, 2014
Temp Definition
°C
Dew Point Temp Definition
°C
Rel Hum Definition
%
Wind Dir Definition
10's deg

Wind Spd Definition
km/h
Visibility Definition
km
Stn Press Definition
kPa
Hmdx Definition


Wind Chill Definition


Weather Definition


TIME
00:00 -2.2 -5.5 78 12 16   100.49   -7 LegendNANA
01:00 -2.2 -4.9 81 12 15   100.44   -7 LegendNANA
02:00 -2.4 -4.5 86 12 14   100.38   -7 LegendNANA
03:00 -2.5 -4.0 90 11 13   100.33   -7 LegendNANA
04:00 -2.4 -3.9 89 10 14   100.31   -7 LegendNANA
05:00 -2.1 -3.9 87 10 17   100.30   -7 LegendNANA
06:00 -2.1 -3.4 90 11 13   100.29   -7 LegendNANA
07:00 -1.8 -3.1 91 9 12   100.31   -6 LegendNANA
08:00 -1.2 -3.0 88 11 11   100.32   -5 LegendNANA
09:00 -0.9 -2.8 87 11 11   100.32   -5 LegendNANA
10:00 -0.9 -1.9 93 12 10   100.34   -4 LegendNANA
11:00 -0.7 -1.6 93 10 11   100.35   -4 LegendNANA
12:00 -0.7 -1.6 94 11 13   100.40   -5 LegendNANA
13:00 -0.7 -1.3 96 11 12   100.45   -5 LegendNANA
14:00 -0.8 -1.4 96 12 14   100.49   -5 LegendNANA
15:00 -0.6 -1.4 94 12 15   100.53   -5 LegendNANA
16:00 -0.7 -1.6 94 12 12   100.57   -5 LegendNANA
17:00 -0.8 -1.6 94 11 15   100.62   -5 LegendNANA
18:00 -1.1 -1.6 96 13 15   100.69   -6 LegendNANA
19:00 -1.2 -1.7 96 13 14   100.76   -6 LegendNANA
20:00 -1.7 -2.1 97 12 11   100.82   -6 LegendNANA
21:00 -1.2 -2.0 94 11 14   100.85   -6 LegendNANA
22:00 -1.0 -2.2 91 12 14   100.87   -5 LegendNANA
23:00 -1.1 -2.4 91 12 11   100.90   -5 LegendNANA

Notes on Data Quality.

Legend

  • E = Estimated
  • M = Missing
  • NA = Not Available
  • ‡ = Partner data that is not subject to review by the National Climate Archives
Date modified: